Weather History for Jefferson City, MO

Change the Weather History Date:

Saturday, November 3, 2012

  Actual Average Record
Temperature  
Mean Temperature 46 °F -  
Max Temperature 55 °F 56 °F 81 °F (1987)
Min Temperature 36 °F 37 °F 10 °F (1966)
Degree Days  
Heating Degree Days 19    
Moisture  
Dew Point 34 °F    
Average Humidity 58    
Maximum Humidity 86    
Minimum Humidity 47    
Precipitation  
Precipitation 0.00 in - - ()
Sea Level Pressure  
Sea Level Pressure 30.04 in    
Wind  
Wind Speed 6 mph (NNE)    
Max Wind Speed 10 mph    
Max Gust Speed 18 mph    
Visibility 10 miles    
Events      
Averages and records for this station are not official NWS values.
T = Trace of Precipitation, MM = Missing Value Source: NWS Daily Summary

Daily Weather History Graph

Daily Weather History Graph

Search for Another Location

Airport:

Trip Planner

Search our weather history database for the weather conditions in past years. The results will help you decide how hot, cold, wet, or windy it might be!

Date:

Astronomy

Nov. 03, 2012 Rise Set
Actual Time 7:38 AM CDT 6:05 PM CDT
Civil Twilight 7:10 AM CDT 6:33 PM CDT
Nautical Twilight 6:38 AM CDT 7:04 PM CDT
Astronomical Twilight 6:07 AM CDT 7:35 PM CDT
Moon 9:48 PM CDT (11/3) 11:41 AM CDT (11/3)
Length of Visible Light 11h 23m
Length of Day
10h 27m
Waning Gibbous, 80% of the Moon is Illuminated
Nov 3
Waning Gibbous
Nov 6
Last Quarter
Nov 13
New
Nov 20
First Quarter
Nov 28
Full

Hourly Weather History & Observations

Time (CDT) Temp. Dew Point Humidity Pressure Visibility Wind Dir Wind Speed Gust Speed Precip Events Conditions
12:53 AM 50.0 °F 33.1 °F 52% 29.92 in 10.0 mi ESE 10.4 mph 18.4 mph N/A   Clear
1:53 AM 50.0 °F 33.1 °F 52% 29.91 in 10.0 mi ESE 8.1 mph - N/A   Clear
2:53 AM 48.9 °F 33.1 °F 54% 29.90 in 10.0 mi ESE 9.2 mph - N/A   Clear
3:53 AM 48.9 °F 33.1 °F 54% 29.91 in 10.0 mi ENE 5.8 mph - N/A   Clear
4:53 AM 48.0 °F 33.1 °F 56% 29.91 in 10.0 mi East 8.1 mph - N/A   Clear
5:53 AM 46.9 °F 33.1 °F 59% 29.93 in 10.0 mi East 4.6 mph - N/A   Clear
6:53 AM 46.0 °F 33.1 °F 61% 29.95 in 10.0 mi Calm Calm - N/A   Clear
7:53 AM 45.0 °F 33.1 °F 63% 29.96 in 10.0 mi Calm Calm - N/A   Clear
8:53 AM 46.9 °F 34.0 °F 61% 30.00 in 10.0 mi NW 3.5 mph - N/A   Clear
9:53 AM 50.0 °F 34.0 °F 54% 30.02 in 10.0 mi Variable 4.6 mph - N/A   Clear
10:53 AM 51.1 °F 35.1 °F 54% 30.04 in 10.0 mi NNE 4.6 mph - N/A   Clear
11:53 AM 53.1 °F 35.1 °F 50% 30.05 in 10.0 mi North 9.2 mph - N/A   Clear
12:53 PM 54.0 °F 34.0 °F 47% 30.06 in 10.0 mi NW 9.2 mph - N/A   Overcast
1:53 PM 54.0 °F 34.0 °F 47% 30.07 in 10.0 mi North 8.1 mph - N/A   Mostly Cloudy
2:53 PM 55.0 °F 36.0 °F 49% 30.08 in 10.0 mi North 9.2 mph - N/A   Overcast
3:53 PM 55.0 °F 37.0 °F 51% 30.10 in 10.0 mi NNW 8.1 mph - N/A   Overcast
4:53 PM 54.0 °F 36.0 °F 51% 30.11 in 10.0 mi North 5.8 mph - N/A   Partly Cloudy
5:53 PM 54.0 °F 36.0 °F 51% 30.12 in 10.0 mi North 5.8 mph - N/A   Clear
6:53 PM 51.1 °F 36.0 °F 56% 30.13 in 10.0 mi North 3.5 mph - N/A   Clear
7:53 PM 48.9 °F 36.0 °F 61% 30.15 in 10.0 mi NNE 5.8 mph - N/A   Clear
8:53 PM 48.0 °F 36.0 °F 63% 30.15 in 10.0 mi NE 3.5 mph - N/A   Clear
9:53 PM 39.0 °F 34.0 °F 82% 30.17 in 9.0 mi Calm Calm - N/A   Clear
10:53 PM 37.9 °F 33.1 °F 83% 30.18 in 8.0 mi Calm Calm - N/A   Clear
11:53 PM 36.0 °F 32.0 °F 86% 30.19 in 7.0 mi Calm Calm - N/A   Clear